Weather History for Columbia Owens, SC

Change the Weather History Date:

Tuesday, October 4, 2011

  Actual Average Record
Temperature  
Mean Temperature 64 °F 70 °F  
Max Temperature 79 °F 80 °F 88 °F (2002)
Min Temperature 49 °F 59 °F 48 °F (2003)
Degree Days  
Heating Degree Days 1 1  
Month to date heating degree days 17 4  
Since 1 July heating degree days 21 7  
Cooling Degree Days 0 6  
Month to date cooling degree days 0 25  
Year to date cooling degree days 2606 2172  
Growing Degree Days 13 (Base 50)    
Moisture  
Dew Point 48 °F    
Average Humidity 64    
Maximum Humidity 93    
Minimum Humidity 35    
Precipitation  
Precipitation 0.00 in 0.12 in 0.40 in (1999)
Month to date precipitation 0.00 0.49  
Year to date precipitation 38.74 36.38  
Sea Level Pressure  
Sea Level Pressure 30.21 in    
Wind  
Wind Speed 1 mph (SE)    
Max Wind Speed 10 mph    
Max Gust Speed 16 mph    
Visibility 10 miles    
Events      
T = Trace of Precipitation, MM = Missing Value Source: NWS Daily Summary

Daily Weather History Graph

Daily Weather History Graph

Search for Another Location

Airport:

Trip Planner

Search our weather history database for the weather conditions in past years. The results will help you decide how hot, cold, wet, or windy it might be!

Date:

Astronomy

Oct. 04, 2011 Rise Set
Actual Time 7:20 AM EDT 7:04 PM EDT
Civil Twilight 6:55 AM EDT 7:29 PM EDT
Nautical Twilight 6:26 AM EDT 7:58 PM EDT
Astronomical Twilight 5:57 AM EDT 8:27 PM EDT
Moon 2:48 PM EDT (10/4) 12:21 AM EDT (10/4)
Length of Visible Light 12h 34m
Length of Day
11h 44m
First Quarter, 56% of the Moon is Illuminated
Oct 4
First Quarter
Oct 11
Full
Oct 19
Last Quarter
Oct 26
New
Nov 2
First Quarter

Hourly Weather History & Observations

Time (EDT) Temp. Dew Point Humidity Pressure Visibility Wind Dir Wind Speed Gust Speed Precip Events Conditions
12:53 AM 53.1 °F 48.0 °F 83% 30.18 in 10.0 mi Calm Calm - N/A   Clear
1:53 AM 52.0 °F 48.0 °F 86% 30.18 in 10.0 mi Calm Calm - N/A   Clear
2:53 AM 52.0 °F 46.9 °F 83% 30.19 in 10.0 mi NE 3.5 mph - N/A   Clear
3:53 AM 53.1 °F 44.1 °F 71% 30.19 in 10.0 mi Calm Calm - N/A   Clear
4:53 AM 51.1 °F 45.0 °F 80% 30.19 in 10.0 mi Calm Calm - N/A   Clear
5:53 AM 50.0 °F 45.0 °F 83% 30.20 in 10.0 mi Calm Calm - N/A   Clear
7:53 AM 48.9 °F 46.0 °F 90% 30.24 in 10.0 mi Calm Calm - N/A   Clear
8:53 AM 57.0 °F 48.0 °F 72% 30.26 in 10.0 mi Calm Calm - N/A   Clear
9:53 AM 63.0 °F 48.0 °F 58% 30.27 in 10.0 mi Calm Calm - N/A   Clear
10:53 AM 66.9 °F 48.0 °F 51% 30.27 in 10.0 mi SW 3.5 mph - N/A   Clear
11:53 AM 72.0 °F 48.0 °F 43% 30.26 in 10.0 mi Calm Calm - N/A   Clear
12:53 PM 75.0 °F 46.9 °F 37% 30.24 in 10.0 mi Variable 3.5 mph - N/A   Clear
2:53 PM 77.0 °F 48.9 °F 37% 30.19 in 10.0 mi Variable 4.6 mph - N/A   Clear
3:53 PM 78.1 °F 48.0 °F 35% 30.17 in 10.0 mi Calm Calm - N/A   Clear
4:53 PM 78.1 °F 48.0 °F 35% 30.17 in 10.0 mi Calm Calm - N/A   Clear
6:53 PM 73.0 °F 52.0 °F 48% 30.18 in 10.0 mi Calm Calm - N/A   Clear
7:53 PM 66.0 °F 54.0 °F 65% 30.19 in 10.0 mi Calm Calm - N/A   Clear
9:53 PM 61.0 °F 54.0 °F 78% 30.21 in 10.0 mi Calm Calm - N/A   Clear
10:53 PM 59.0 °F 54.0 °F 83% 30.22 in 10.0 mi Calm Calm - N/A   Clear